Flag for U.S.A. Weather past 2 weeks in Rapid City, South Dakota, U.S.A.

Now
66 °F

Clear.


Feels Like: 66 °F
Forecast: 63 / 85 °F
Wind: 9 mph from Northwest

Location: Ellsworth Air Force Base

Current Time: Aug 2, 2015 at 4:58:23 AM

Latest Report: Aug 2, 2015 at 3:58 AM


Visibility: 10 mi

Pressure: 29.81 "Hg (26.59 "Hg at 977m altitude)

Humidity: 64%

Dew point: 54 °F

Location of Rapid CityLocation

Historic Weather in Rapid City — Graph

°F

Rapid City temperature yesterday

Maximum temperature yesterday: 94 °F (at 4:58 PM)
Minimum temperature yesterday: 62 °F (at 4:58 AM)
Average temperature yesterday: 78 °F

Past Weeks' High & Low Weather Summary

 TemperatureHumidityPressure
High95 °F (Jul 23, 3:58 PM)96% (Jul 27, 4:58 AM)30.21 "Hg (Jul 27, 4:58 AM)
Low53 °F (Jul 29, 4:58 AM)12% (Aug 1, 4:58 PM)29.55 "Hg (Jul 27, 3:58 PM)
Average74 °F54%29.93 "Hg
* Reported Jul 18 3:58 AM — Aug 2 3:58 AM, Rapid City, Weather by CustomWeather, © 2015

Note: Actual official high and low records may vary slightly from our data, if they occured in-between our weather recording intervals... More about our weather records

Advertising

Rapid City weather history for previous 24 hours

 ConditionsComfort  
Time TempWeatherWind HumidityBarometerVisibility
3:58 AM
Sun, Aug 2
66 °FClear.9 mph64%29.81 "Hg10 mi
2:58 AM64 °FClear.12 mph63%29.82 "Hg10 mi
1:58 AM65 °FClear.7 mph66%29.82 "Hg10 mi
11:58 PM
Sat, Aug 1
74 °FClear.9 mph63%29.82 "Hg10 mi
10:58 PM74 °FClear.8 mph60%29.84 "Hg10 mi
9:58 PM74 °FClear.7 mph53%29.84 "Hg10 mi
8:58 PM76 °FClear.5 mph56%29.83 "Hg10 mi
5:58 PM93 °FSunny.8 mph14%29.84 "Hg10 mi
4:58 PM94 °FSunny.10 mph12%29.85 "Hg10 mi
3:58 PM93 °FSunny.3 mph15%29.85 "Hg10 mi
2:58 PM93 °FSunny.10 mph16%29.87 "Hg10 mi
1:58 PM92 °FSunny.1 mph17%29.90 "Hg10 mi
12:58 PM89 °FSunny.5 mph30%29.92 "Hg10 mi
11:58 AM87 °FSunny.1 mph29%29.93 "Hg10 mi
10:58 AM84 °FSunny.2 mph37%29.95 "Hg10 mi
9:58 AM82 °FSunny.1 mph40%29.95 "Hg10 mi
8:58 AM78 °FSunny.1 mph47%29.95 "Hg10 mi
7:58 AM68 °FPassing clouds.7 mph75%29.94 "Hg10 mi
6:58 AM67 °FPassing clouds.5 mph75%29.93 "Hg10 mi
5:58 AM63 °FSunny.7 mph79%29.93 "Hg10 mi
4:58 AM62 °FClear.9 mph77%29.94 "Hg10 mi
Weather by CustomWeather, © 2015

See weather overviewHow to use our weather pages